Year,Month,Day,Hour,Minute,Value (Times are PST for temperature in C)
2017,02,23,00,00,2.80
2017,02,23,00,01,2.80
2017,02,23,00,03,2.80
2017,02,23,00,05,2.80
2017,02,23,00,06,2.80
2017,02,23,00,07,2.80
2017,02,23,00,08,2.80
2017,02,23,00,10,2.80
2017,02,23,00,11,2.80
2017,02,23,00,12,2.80
2017,02,23,00,13,2.80
2017,02,23,00,15,2.80
2017,02,23,00,16,2.80
2017,02,23,00,17,2.80
2017,02,23,00,18,2.80
2017,02,23,00,19,2.80
2017,02,23,00,20,2.80
2017,02,23,00,22,2.80
2017,02,23,00,23,2.80
2017,02,23,00,24,2.80
2017,02,23,00,25,2.80
2017,02,23,00,26,2.80
2017,02,23,00,27,2.80
2017,02,23,00,29,2.80
2017,02,23,00,30,2.80
2017,02,23,00,31,2.80
2017,02,23,00,32,2.80
2017,02,23,00,34,2.80
2017,02,23,00,35,2.80
2017,02,23,00,36,2.80
2017,02,23,00,37,2.80
2017,02,23,00,38,2.80
2017,02,23,00,39,2.80
2017,02,23,00,40,2.80
2017,02,23,00,41,2.80
2017,02,23,00,43,2.80
2017,02,23,00,44,2.80
2017,02,23,00,45,2.80
2017,02,23,00,46,2.80
2017,02,23,00,48,2.80
2017,02,23,00,49,2.80
2017,02,23,00,50,2.80
2017,02,23,00,51,2.80
2017,02,23,00,53,2.80
2017,02,23,00,54,2.80
2017,02,23,00,55,2.80
2017,02,23,00,56,2.70
2017,02,23,00,57,2.70
2017,02,23,00,58,2.70
2017,02,23,00,59,2.70
2017,02,23,01,00,2.70
2017,02,23,01,02,2.70
2017,02,23,01,03,2.70
2017,02,23,01,04,2.70
2017,02,23,01,05,2.70
2017,02,23,01,07,2.70
2017,02,23,01,08,2.70
2017,02,23,01,09,2.70
2017,02,23,01,10,2.70
2017,02,23,01,12,2.70
2017,02,23,01,13,2.70
2017,02,23,01,14,2.70
2017,02,23,01,15,2.70
2017,02,23,01,16,2.70
2017,02,23,01,17,2.70
2017,02,23,01,18,2.70
2017,02,23,01,19,2.70
2017,02,23,01,21,2.70
2017,02,23,01,23,2.70
2017,02,23,01,24,2.70
2017,02,23,01,25,2.70
2017,02,23,01,26,2.70
2017,02,23,01,28,2.70
2017,02,23,01,29,2.70
2017,02,23,01,30,2.70
2017,02,23,01,31,2.70
2017,02,23,01,32,2.70
2017,02,23,01,33,2.70
2017,02,23,01,34,2.70
2017,02,23,01,35,2.70
2017,02,23,01,36,2.70
2017,02,23,01,37,2.70
2017,02,23,01,38,2.70
2017,02,23,01,40,2.70
2017,02,23,01,41,2.70
2017,02,23,01,42,2.70
2017,02,23,01,43,2.70
2017,02,23,01,44,2.70
2017,02,23,01,45,2.70
2017,02,23,01,46,2.70
2017,02,23,01,47,2.70
2017,02,23,01,48,2.70
2017,02,23,01,49,2.70
2017,02,23,01,50,2.70
2017,02,23,01,52,2.70
2017,02,23,01,53,2.70
2017,02,23,01,54,2.70
2017,02,23,01,55,2.70
2017,02,23,01,56,2.70
2017,02,23,01,57,2.70
2017,02,23,01,58,2.70
2017,02,23,01,59,2.70
2017,02,23,02,00,2.70
2017,02,23,02,01,2.70
2017,02,23,02,02,2.70
2017,02,23,02,04,2.70
2017,02,23,02,05,2.70
2017,02,23,02,06,2.70
2017,02,23,02,07,2.70
2017,02,23,02,09,2.60
2017,02,23,02,10,2.60
2017,02,23,02,11,2.60
2017,02,23,02,12,2.60
2017,02,23,02,14,2.70
2017,02,23,02,15,2.70
2017,02,23,02,16,2.70
2017,02,23,02,17,2.70
2017,02,23,02,18,2.60
2017,02,23,02,19,2.60
2017,02,23,02,21,2.60
2017,02,23,02,22,2.60
2017,02,23,02,23,2.60
2017,02,23,02,24,2.60
2017,02,23,02,26,2.60
2017,02,23,02,27,2.60
2017,02,23,02,28,2.60
2017,02,23,02,29,2.60
2017,02,23,02,30,2.60
2017,02,23,02,31,2.60
2017,02,23,02,33,2.60
2017,02,23,02,34,2.60
2017,02,23,02,35,2.60
2017,02,23,02,36,2.60
2017,02,23,02,38,2.60
2017,02,23,02,39,2.60
2017,02,23,02,40,2.60
2017,02,23,02,41,2.60
2017,02,23,02,43,2.60
2017,02,23,02,44,2.60
2017,02,23,02,45,2.70
2017,02,23,02,46,2.70
2017,02,23,02,47,2.70
2017,02,23,02,48,2.70
2017,02,23,02,49,2.70
2017,02,23,02,50,2.70
2017,02,23,02,51,2.70
2017,02,23,02,52,2.70
2017,02,23,02,53,2.70
2017,02,23,02,54,2.70
2017,02,23,02,55,2.70
2017,02,23,02,57,2.70
2017,02,23,02,58,2.70
2017,02,23,02,59,2.70
2017,02,23,03,00,2.70
2017,02,23,03,01,2.70
2017,02,23,03,02,2.70
2017,02,23,03,03,2.70
2017,02,23,03,04,2.70
2017,02,23,03,05,2.70
2017,02,23,03,06,2.70
2017,02,23,03,07,2.70
2017,02,23,03,09,2.70
2017,02,23,03,10,2.70
2017,02,23,03,11,2.70
2017,02,23,03,12,2.70
2017,02,23,03,13,2.70
2017,02,23,03,14,2.70
2017,02,23,03,15,2.70
2017,02,23,03,16,2.70
2017,02,23,03,17,2.70
2017,02,23,03,18,2.70
2017,02,23,03,19,2.70
2017,02,23,03,20,2.70
2017,02,23,03,21,2.70
2017,02,23,03,22,2.70
2017,02,23,03,23,2.70
2017,02,23,03,24,2.70
2017,02,23,03,25,2.70
2017,02,23,03,26,2.70
2017,02,23,03,27,2.80
2017,02,23,03,28,2.80
2017,02,23,03,29,2.80
2017,02,23,03,30,2.80
2017,02,23,03,31,2.80
2017,02,23,03,32,2.80
2017,02,23,03,33,2.80
2017,02,23,03,34,2.80
2017,02,23,03,35,2.80
2017,02,23,03,36,2.80
2017,02,23,03,37,2.80
2017,02,23,03,38,2.80
2017,02,23,03,39,2.80
2017,02,23,03,41,2.80
2017,02,23,03,42,2.80
2017,02,23,03,43,2.80
2017,02,23,03,44,2.80
2017,02,23,03,45,2.80
2017,02,23,03,46,2.80
2017,02,23,03,47,2.80
2017,02,23,03,48,2.80
2017,02,23,03,49,2.80
2017,02,23,03,50,2.80
2017,02,23,03,51,2.80
2017,02,23,03,53,2.80
2017,02,23,03,54,2.90
2017,02,23,03,55,2.90
2017,02,23,03,56,2.90
2017,02,23,03,57,2.90
2017,02,23,03,58,2.90
2017,02,23,03,59,2.90
2017,02,23,04,00,2.90
2017,02,23,04,01,2.90
2017,02,23,04,02,2.90
2017,02,23,04,03,2.90
2017,02,23,04,04,2.90
2017,02,23,04,05,2.90
2017,02,23,04,06,2.90
2017,02,23,04,07,2.80
2017,02,23,04,08,2.80
2017,02,23,04,09,2.80
2017,02,23,04,10,2.80
2017,02,23,04,11,2.80
2017,02,23,04,12,2.80
2017,02,23,04,13,2.80
2017,02,23,04,14,2.80
2017,02,23,04,15,2.80
2017,02,23,04,16,2.80
2017,02,23,04,17,2.80
2017,02,23,04,18,2.80
2017,02,23,04,19,2.80
2017,02,23,04,20,2.80
2017,02,23,04,21,2.80
2017,02,23,04,22,2.80
2017,02,23,04,23,2.80
2017,02,23,04,24,2.80
2017,02,23,04,25,2.80
2017,02,23,04,26,2.80
2017,02,23,04,27,2.80
2017,02,23,04,28,2.80
2017,02,23,04,29,2.80
2017,02,23,04,30,2.80
2017,02,23,04,31,2.80
2017,02,23,04,32,2.80
2017,02,23,04,33,2.80
2017,02,23,04,34,2.80
2017,02,23,04,35,2.80
2017,02,23,04,36,2.80
2017,02,23,04,37,2.80
2017,02,23,04,38,2.80
2017,02,23,04,39,2.80
2017,02,23,04,40,2.80
2017,02,23,04,41,2.80
2017,02,23,04,42,2.80
2017,02,23,04,43,2.80
2017,02,23,04,44,2.80
2017,02,23,04,45,2.80
2017,02,23,04,46,2.80
2017,02,23,04,47,2.80
2017,02,23,04,48,2.80
2017,02,23,04,49,2.80
2017,02,23,04,50,2.80
2017,02,23,04,51,2.80
2017,02,23,04,52,2.80
2017,02,23,04,53,2.80
2017,02,23,04,54,2.80
2017,02,23,04,55,2.80
2017,02,23,04,56,2.80
2017,02,23,04,57,2.80
2017,02,23,04,58,2.80
2017,02,23,04,59,2.80
2017,02,23,05,00,2.80
2017,02,23,05,01,2.90
2017,02,23,05,02,2.90
2017,02,23,05,03,2.90
2017,02,23,05,04,2.90
2017,02,23,05,05,2.90
2017,02,23,05,06,2.80
2017,02,23,05,07,2.80
2017,02,23,05,08,2.80
2017,02,23,05,09,2.80
2017,02,23,05,10,2.80
2017,02,23,05,11,2.80
2017,02,23,05,12,2.80
2017,02,23,05,13,2.80
2017,02,23,05,14,2.80
2017,02,23,05,15,2.80
2017,02,23,05,16,2.80
2017,02,23,05,17,2.80
2017,02,23,05,18,2.80
2017,02,23,05,19,2.80
2017,02,23,05,20,2.80
2017,02,23,05,21,2.80
2017,02,23,05,22,2.80
2017,02,23,05,23,2.80
2017,02,23,05,24,2.80
2017,02,23,05,26,2.80
2017,02,23,05,27,2.80
2017,02,23,05,28,2.80
2017,02,23,05,29,2.80
2017,02,23,05,31,2.80
2017,02,23,05,32,2.80
2017,02,23,05,34,2.90
2017,02,23,05,36,2.90
2017,02,23,05,37,2.90
2017,02,23,05,38,2.90
2017,02,23,05,39,2.90
2017,02,23,05,41,2.90
2017,02,23,05,43,2.90
2017,02,23,05,44,2.90
2017,02,23,05,45,2.90
2017,02,23,05,46,2.90
2017,02,23,05,48,2.90
2017,02,23,05,50,2.90
2017,02,23,05,51,3.00
2017,02,23,05,53,3.00
2017,02,23,05,55,3.00
2017,02,23,05,56,3.00
2017,02,23,05,57,3.00
2017,02,23,05,58,3.00
2017,02,23,06,00,3.00
2017,02,23,06,01,3.00
2017,02,23,06,02,3.00
2017,02,23,06,03,2.90
2017,02,23,06,05,2.90
2017,02,23,06,07,2.80
2017,02,23,06,08,2.80
2017,02,23,06,09,2.80
2017,02,23,06,10,2.80
2017,02,23,06,12,2.80
2017,02,23,06,13,2.80
2017,02,23,06,14,2.80
2017,02,23,06,15,2.80
2017,02,23,06,16,2.80
2017,02,23,06,17,2.80
2017,02,23,06,19,2.80
2017,02,23,06,20,2.80
2017,02,23,06,21,2.80
2017,02,23,06,22,2.80
2017,02,23,06,24,2.80
2017,02,23,06,25,2.80
2017,02,23,06,26,2.80
2017,02,23,06,27,2.80
2017,02,23,06,28,2.80
2017,02,23,06,29,2.80
2017,02,23,06,31,2.80
2017,02,23,06,32,2.80
2017,02,23,06,33,2.80
2017,02,23,06,34,2.80
2017,02,23,06,36,2.80
2017,02,23,06,37,2.80
2017,02,23,06,38,2.80
2017,02,23,06,39,2.80
2017,02,23,06,41,2.80
2017,02,23,06,42,2.80
2017,02,23,06,43,2.80
2017,02,23,06,44,2.90
2017,02,23,06,45,2.90
2017,02,23,06,46,2.90
2017,02,23,06,48,2.90
2017,02,23,06,49,2.90
2017,02,23,06,50,2.90
2017,02,23,06,51,2.90
2017,02,23,06,53,2.90
2017,02,23,06,54,2.90
2017,02,23,06,55,2.90
2017,02,23,06,56,2.90
2017,02,23,06,58,2.80
2017,02,23,06,59,2.80
2017,02,23,07,00,2.80
2017,02,23,07,01,2.80
2017,02,23,07,02,2.80
2017,02,23,07,03,2.80
2017,02,23,07,04,2.80
2017,02,23,07,05,2.80
2017,02,23,07,07,2.80
2017,02,23,07,08,2.80
2017,02,23,07,09,2.80
2017,02,23,07,10,2.80
2017,02,23,07,12,2.80
2017,02,23,07,13,2.80
2017,02,23,07,14,2.80
2017,02,23,07,15,2.80
2017,02,23,07,17,2.80
2017,02,23,07,18,2.80
2017,02,23,07,19,2.80
2017,02,23,07,20,2.80
2017,02,23,07,22,2.80
2017,02,23,07,23,2.80
2017,02,23,07,24,2.80
2017,02,23,07,25,2.80
2017,02,23,07,27,2.80
2017,02,23,07,28,2.80
2017,02,23,07,29,2.80
2017,02,23,07,30,2.80
2017,02,23,07,31,2.80
2017,02,23,07,32,2.80
2017,02,23,07,33,2.80
2017,02,23,07,34,2.80
2017,02,23,07,35,2.80
2017,02,23,07,36,2.90
2017,02,23,07,37,2.90
2017,02,23,07,38,3.00
2017,02,23,07,39,3.00
2017,02,23,07,40,3.00
2017,02,23,07,41,3.00
2017,02,23,07,42,3.00
2017,02,23,07,43,3.00
2017,02,23,07,44,3.00
2017,02,23,07,45,3.00
2017,02,23,07,46,2.90
2017,02,23,07,47,2.90
2017,02,23,07,48,2.90
2017,02,23,07,49,2.90
2017,02,23,07,51,2.90
2017,02,23,07,52,2.90
2017,02,23,07,53,2.90
2017,02,23,07,54,2.90
2017,02,23,07,56,2.90
2017,02,23,07,57,3.00
2017,02,23,07,58,3.00
2017,02,23,07,59,3.00
2017,02,23,08,01,3.10
2017,02,23,08,02,3.10
2017,02,23,08,03,3.20
2017,02,23,08,04,3.20
2017,02,23,08,05,3.20
2017,02,23,08,06,3.20
2017,02,23,08,08,3.20
2017,02,23,08,09,3.20
2017,02,23,08,10,3.10
2017,02,23,08,11,3.10
2017,02,23,08,13,3.10
2017,02,23,08,14,3.10
2017,02,23,08,15,3.00
2017,02,23,08,16,3.00
2017,02,23,08,17,2.90
2017,02,23,08,18,2.90
2017,02,23,08,20,2.90
2017,02,23,08,21,2.90
2017,02,23,08,22,2.90
2017,02,23,08,23,2.90
2017,02,23,08,24,2.90
2017,02,23,08,25,2.90
2017,02,23,08,26,2.90
2017,02,23,08,27,2.90
2017,02,23,08,28,2.90
2017,02,23,08,29,2.90
2017,02,23,08,30,3.00
2017,02,23,08,31,3.00
2017,02,23,08,32,3.00
2017,02,23,08,33,3.00
2017,02,23,08,34,3.00
2017,02,23,08,35,3.00
2017,02,23,08,36,3.10
2017,02,23,08,37,3.10
2017,02,23,08,38,3.10
2017,02,23,08,39,3.20
2017,02,23,08,40,3.20
2017,02,23,08,41,3.20
2017,02,23,08,42,3.30
2017,02,23,08,43,3.30
2017,02,23,08,44,3.30
2017,02,23,08,45,3.30
2017,02,23,08,46,3.30
2017,02,23,08,47,3.30
2017,02,23,08,48,3.40
2017,02,23,08,49,3.40
2017,02,23,08,50,3.40
2017,02,23,08,51,3.50
2017,02,23,08,52,3.50
2017,02,23,08,53,3.50
2017,02,23,08,54,3.60
2017,02,23,08,55,3.60
2017,02,23,08,56,3.60
2017,02,23,08,57,3.70
2017,02,23,08,58,3.70
2017,02,23,08,59,3.70
2017,02,23,09,00,3.70
2017,02,23,09,01,3.70
2017,02,23,09,02,3.70
2017,02,23,09,03,3.70
2017,02,23,09,04,3.70
2017,02,23,09,05,3.70
2017,02,23,09,06,3.70
2017,02,23,09,07,3.70
2017,02,23,09,08,3.70
2017,02,23,09,09,3.70
2017,02,23,09,10,3.70
2017,02,23,09,11,3.70
2017,02,23,09,12,3.70
2017,02,23,09,13,3.70
2017,02,23,09,14,3.80
2017,02,23,09,15,3.80
2017,02,23,09,16,3.90
2017,02,23,09,17,4.00
2017,02,23,09,18,4.00
2017,02,23,09,19,4.10
2017,02,23,09,20,4.10
2017,02,23,09,21,4.10
2017,02,23,09,22,4.20
2017,02,23,09,23,4.20
2017,02,23,09,24,4.30
2017,02,23,09,25,4.30
2017,02,23,09,26,4.40
2017,02,23,09,27,4.40
2017,02,23,09,28,4.40
2017,02,23,09,29,4.60
2017,02,23,09,30,4.60
2017,02,23,09,31,4.60
2017,02,23,09,32,4.60
2017,02,23,09,33,4.70
2017,02,23,09,34,4.70
2017,02,23,09,35,4.70
2017,02,23,09,36,4.70
2017,02,23,09,37,4.70
2017,02,23,09,38,4.70
2017,02,23,09,39,4.70
2017,02,23,09,40,4.60
2017,02,23,09,41,4.60
2017,02,23,09,42,4.60
2017,02,23,09,43,4.60
2017,02,23,09,44,4.60
2017,02,23,09,45,4.60
2017,02,23,09,46,4.60
2017,02,23,09,47,4.70
2017,02,23,09,48,4.80
2017,02,23,09,49,4.80
2017,02,23,09,50,4.80
2017,02,23,09,51,4.80
2017,02,23,09,52,4.80
2017,02,23,09,53,4.80
2017,02,23,09,54,4.90
2017,02,23,09,55,4.90
2017,02,23,09,56,4.90
2017,02,23,09,57,4.90
2017,02,23,09,58,4.80
2017,02,23,09,59,4.90
2017,02,23,10,00,4.90
2017,02,23,10,01,4.90
2017,02,23,10,02,4.90
2017,02,23,10,03,4.90
2017,02,23,10,04,4.90
2017,02,23,10,05,5.00
2017,02,23,10,06,5.00
2017,02,23,10,07,5.00
2017,02,23,10,08,5.10
2017,02,23,10,09,5.10
2017,02,23,10,10,5.20
2017,02,23,10,11,5.20
2017,02,23,10,12,5.20
2017,02,23,10,13,5.20
2017,02,23,10,14,5.20
2017,02,23,10,15,5.20
2017,02,23,10,16,5.20
2017,02,23,10,17,5.20
2017,02,23,10,18,5.20
2017,02,23,10,19,5.20
2017,02,23,10,20,5.20
2017,02,23,10,21,5.20
2017,02,23,10,22,5.20
2017,02,23,10,23,5.20
2017,02,23,10,24,5.20
2017,02,23,10,25,5.20
2017,02,23,10,26,5.20
2017,02,23,10,27,5.20
2017,02,23,10,28,5.20
2017,02,23,10,29,5.20
2017,02,23,10,30,5.30
2017,02,23,10,31,5.30
2017,02,23,10,32,5.30
2017,02,23,10,33,5.30
2017,02,23,10,34,5.40
2017,02,23,10,35,5.40
2017,02,23,10,36,5.40
2017,02,23,10,37,5.40
2017,02,23,10,38,5.40
2017,02,23,10,39,5.50
2017,02,23,10,40,5.50
2017,02,23,10,41,5.60
2017,02,23,10,43,5.60
2017,02,23,10,44,5.50
2017,02,23,10,45,5.50
2017,02,23,10,46,5.50
2017,02,23,10,48,5.30
2017,02,23,10,50,5.20
2017,02,23,10,51,5.20
2017,02,23,10,53,5.20
2017,02,23,10,55,5.20
2017,02,23,10,56,5.20
2017,02,23,10,58,5.20
2017,02,23,11,00,5.40
2017,02,23,11,01,5.50
2017,02,23,11,02,5.60
2017,02,23,11,03,5.60
2017,02,23,11,05,5.70
2017,02,23,11,06,5.70
2017,02,23,11,07,5.70
2017,02,23,11,08,5.70
2017,02,23,11,10,5.70
2017,02,23,11,11,5.70
2017,02,23,11,12,5.70
2017,02,23,11,13,5.80
2017,02,23,11,15,5.80
2017,02,23,11,16,5.90
2017,02,23,11,17,5.90
2017,02,23,11,18,5.90
2017,02,23,11,19,5.90
2017,02,23,11,20,5.90
2017,02,23,11,22,5.90
2017,02,23,11,23,5.90
2017,02,23,11,24,5.90
2017,02,23,11,25,6.10
2017,02,23,11,26,6.10
2017,02,23,11,27,6.10
2017,02,23,11,29,6.10
2017,02,23,11,30,6.10
2017,02,23,11,31,6.10
2017,02,23,11,32,6.10
2017,02,23,11,34,6.20
2017,02,23,11,35,6.20
2017,02,23,11,36,6.10
2017,02,23,11,37,6.10
2017,02,23,11,38,6.10
2017,02,23,11,39,6.10
2017,02,23,11,41,6.10
2017,02,23,11,42,6.10
2017,02,23,11,43,6.20
2017,02,23,11,44,6.20
2017,02,23,11,46,6.20
2017,02,23,11,47,6.20
2017,02,23,11,48,6.20
2017,02,23,11,49,6.20
2017,02,23,11,50,6.20
2017,02,23,11,51,6.10
2017,02,23,11,53,6.10
2017,02,23,11,54,6.10
2017,02,23,11,55,6.10
2017,02,23,11,56,6.10
2017,02,23,11,58,6.10
2017,02,23,11,59,6.10
2017,02,23,12,00,6.10
2017,02,23,12,01,6.10
2017,02,23,12,03,6.10
2017,02,23,12,04,6.10
2017,02,23,12,05,6.20
2017,02,23,12,06,6.20
2017,02,23,12,07,6.20
2017,02,23,12,08,6.30
2017,02,23,12,10,6.20
2017,02,23,12,11,6.20
2017,02,23,12,12,6.20
2017,02,23,12,13,6.20
2017,02,23,12,15,6.20
2017,02,23,12,16,6.20
2017,02,23,12,17,6.20
2017,02,23,12,18,6.20
2017,02,23,12,20,6.30
2017,02,23,12,21,6.30
2017,02,23,12,22,6.30
2017,02,23,12,23,6.30
2017,02,23,12,25,6.30
2017,02,23,12,26,6.30
2017,02,23,12,27,6.30
2017,02,23,12,28,6.30
2017,02,23,12,29,6.30
2017,02,23,12,30,6.30
2017,02,23,12,31,6.30
2017,02,23,12,32,6.30
2017,02,23,12,34,6.20
2017,02,23,12,35,6.20
2017,02,23,12,36,6.20
2017,02,23,12,37,6.30
2017,02,23,12,39,6.30
2017,02,23,12,40,6.30
2017,02,23,12,41,6.30
2017,02,23,12,42,6.40
2017,02,23,12,44,6.40
2017,02,23,12,45,6.40
2017,02,23,12,46,6.40
2017,02,23,12,47,6.30
2017,02,23,12,48,6.30
2017,02,23,12,49,6.30
2017,02,23,12,51,6.30
2017,02,23,12,52,6.40
2017,02,23,12,53,6.40
2017,02,23,12,54,6.40
2017,02,23,12,56,6.40
2017,02,23,12,57,6.40
2017,02,23,12,58,6.30
2017,02,23,12,59,6.30
2017,02,23,13,00,6.30
2017,02,23,13,01,6.30
2017,02,23,13,03,6.30
2017,02,23,13,04,6.30
2017,02,23,13,05,6.30
2017,02,23,13,06,6.30
2017,02,23,13,08,6.30
2017,02,23,13,09,6.30
2017,02,23,13,10,6.30
2017,02,23,13,11,6.30
2017,02,23,13,12,6.30
2017,02,23,13,13,6.30
2017,02,23,13,14,6.30
2017,02,23,13,15,6.40
2017,02,23,13,16,6.40
2017,02,23,13,17,6.40
2017,02,23,13,18,6.40
2017,02,23,13,19,6.40
2017,02,23,13,20,6.40
2017,02,23,13,21,6.40
2017,02,23,13,22,6.50
2017,02,23,13,23,6.40
2017,02,23,13,25,6.50
2017,02,23,13,26,6.50
2017,02,23,13,27,6.50
2017,02,23,13,28,6.50
2017,02,23,13,30,6.50
2017,02,23,13,31,6.60
2017,02,23,13,32,6.60
2017,02,23,13,33,6.70
2017,02,23,13,35,6.70
2017,02,23,13,36,6.70
2017,02,23,13,37,6.70
2017,02,23,13,38,6.70
2017,02,23,13,40,6.60
2017,02,23,13,41,6.70
2017,02,23,13,42,6.70
2017,02,23,13,43,6.70
2017,02,23,13,44,6.70
2017,02,23,13,45,6.60
2017,02,23,13,46,6.60
2017,02,23,13,47,6.60
2017,02,23,13,48,6.60
2017,02,23,13,49,6.60
2017,02,23,13,50,6.60
2017,02,23,13,51,6.60
2017,02,23,13,52,6.60
2017,02,23,13,53,6.60
2017,02,23,13,54,6.70
2017,02,23,13,55,6.70
2017,02,23,13,56,6.70
2017,02,23,13,57,6.80
2017,02,23,13,58,6.80
2017,02,23,13,59,6.80
2017,02,23,14,00,6.80
2017,02,23,14,01,6.80
2017,02,23,14,02,6.80
2017,02,23,14,03,6.80
2017,02,23,14,04,6.80
2017,02,23,14,05,6.90
2017,02,23,14,06,6.90
2017,02,23,14,07,6.90
2017,02,23,14,08,6.90
2017,02,23,14,09,6.90
2017,02,23,14,10,6.90
2017,02,23,14,11,6.90
2017,02,23,14,12,6.80
2017,02,23,14,13,6.80
2017,02,23,14,14,6.80
2017,02,23,14,15,6.80
2017,02,23,14,16,6.80
2017,02,23,14,17,6.80
2017,02,23,14,18,6.80
2017,02,23,14,19,6.80
2017,02,23,14,20,6.80
2017,02,23,14,21,6.80
2017,02,23,14,22,6.80
2017,02,23,14,23,6.80
2017,02,23,14,24,6.80
2017,02,23,14,25,6.90
2017,02,23,14,26,6.90
2017,02,23,14,27,6.90
2017,02,23,14,28,6.90
2017,02,23,14,29,6.90
2017,02,23,14,30,6.90
2017,02,23,14,31,7.00
2017,02,23,14,32,7.00
2017,02,23,14,33,7.00
2017,02,23,14,34,7.00
2017,02,23,14,35,7.00
2017,02,23,14,36,7.00
2017,02,23,14,47,7.40
2017,02,23,14,48,7.40
2017,02,23,14,49,7.40
2017,02,23,14,50,7.40
2017,02,23,14,51,7.40
2017,02,23,14,52,7.40
2017,02,23,14,53,7.40
2017,02,23,14,54,7.40
2017,02,23,14,55,7.40
2017,02,23,14,56,7.40
2017,02,23,14,57,7.40
2017,02,23,14,58,7.30
2017,02,23,14,59,7.30
2017,02,23,15,00,7.20
2017,02,23,15,01,7.20
2017,02,23,15,02,7.20
2017,02,23,15,03,7.20
2017,02,23,15,04,7.20
2017,02,23,15,05,7.20
2017,02,23,15,06,7.10
2017,02,23,15,07,7.10
2017,02,23,15,08,7.10
2017,02,23,15,09,7.10
2017,02,23,15,10,7.10
2017,02,23,15,11,7.10
2017,02,23,15,12,7.10
2017,02,23,15,13,7.10
2017,02,23,15,14,7.20
2017,02,23,15,15,7.20
2017,02,23,15,16,7.20
2017,02,23,15,17,7.20
2017,02,23,15,18,7.20
2017,02,23,15,19,7.20
2017,02,23,15,20,7.20
2017,02,23,15,21,7.20
2017,02,23,15,22,7.20
2017,02,23,15,23,7.20
2017,02,23,15,24,7.30
2017,02,23,15,25,7.30
2017,02,23,15,26,7.30
2017,02,23,15,27,7.20
2017,02,23,15,28,7.20
2017,02,23,15,29,7.20
2017,02,23,15,30,7.20
2017,02,23,15,31,7.20
2017,02,23,15,32,7.20
2017,02,23,15,33,7.20
2017,02,23,15,34,7.20
2017,02,23,15,35,7.20
2017,02,23,15,36,7.20
2017,02,23,15,37,7.20
2017,02,23,15,38,7.20
2017,02,23,15,39,7.20
2017,02,23,15,40,7.20
2017,02,23,15,41,7.20
2017,02,23,15,42,7.10
2017,02,23,15,43,7.10
2017,02,23,15,44,7.10
2017,02,23,15,45,7.00
2017,02,23,15,46,7.00
2017,02,23,15,47,7.00
2017,02,23,15,48,6.90
2017,02,23,15,49,6.90
2017,02,23,15,50,6.80
2017,02,23,15,51,6.80
2017,02,23,15,52,6.80
2017,02,23,15,53,6.80
2017,02,23,15,54,6.80
2017,02,23,15,55,6.80
2017,02,23,15,56,6.80
2017,02,23,15,57,6.80
2017,02,23,15,58,6.80
2017,02,23,15,59,6.70
2017,02,23,16,00,6.70
2017,02,23,16,01,6.70
2017,02,23,16,02,6.60
2017,02,23,16,03,6.60
2017,02,23,16,04,6.60
2017,02,23,16,05,6.60
2017,02,23,16,06,6.60
2017,02,23,16,07,6.60
2017,02,23,16,08,6.60
2017,02,23,16,09,6.60
2017,02,23,16,10,6.60
2017,02,23,16,11,6.60
2017,02,23,16,12,6.60
2017,02,23,16,13,6.60
2017,02,23,16,14,6.60
2017,02,23,16,15,6.60
2017,02,23,16,16,6.60
2017,02,23,16,17,6.50
2017,02,23,16,18,6.50
2017,02,23,16,19,6.40
2017,02,23,16,20,6.40
2017,02,23,16,21,6.30
2017,02,23,16,23,6.30
2017,02,23,16,25,6.20
2017,02,23,16,27,6.10
2017,02,23,16,28,6.10
2017,02,23,16,29,6.10
2017,02,23,16,30,6.10
2017,02,23,16,32,6.10
2017,02,23,16,33,5.90
2017,02,23,16,34,5.90
2017,02,23,16,35,5.90
2017,02,23,16,37,5.90
2017,02,23,16,39,5.80
2017,02,23,16,40,5.80
2017,02,23,16,41,5.70
2017,02,23,16,42,5.70
2017,02,23,16,44,5.70
2017,02,23,16,45,5.70
2017,02,23,16,46,5.60
2017,02,23,16,47,5.60
2017,02,23,16,49,5.50
2017,02,23,16,51,5.40
2017,02,23,16,52,5.40
2017,02,23,16,54,5.30
2017,02,23,16,56,5.20
2017,02,23,16,57,5.20
2017,02,23,16,58,5.20
2017,02,23,16,59,5.20
2017,02,23,17,01,5.10
2017,02,23,17,02,5.10
2017,02,23,17,03,5.00
2017,02,23,17,04,5.00
2017,02,23,17,06,4.90
2017,02,23,17,08,4.90
2017,02,23,17,09,4.80
2017,02,23,17,10,4.80
2017,02,23,17,11,4.80
2017,02,23,17,13,4.80
2017,02,23,17,14,4.70
2017,02,23,17,15,4.60
2017,02,23,17,16,4.60
2017,02,23,17,17,4.60
2017,02,23,17,18,4.40
2017,02,23,17,20,4.30
2017,02,23,17,21,4.20
2017,02,23,17,22,4.10
2017,02,23,17,23,4.10
2017,02,23,17,25,4.10
2017,02,23,17,26,4.00
2017,02,23,17,27,4.00
2017,02,23,17,28,3.90
2017,02,23,17,30,3.80
2017,02,23,17,31,3.80
2017,02,23,17,32,3.80
2017,02,23,17,33,3.70
2017,02,23,17,34,3.70
2017,02,23,17,35,3.70
2017,02,23,17,36,3.70
2017,02,23,17,37,3.70
2017,02,23,17,39,3.60
2017,02,23,17,40,3.60
2017,02,23,17,41,3.50
2017,02,23,17,42,3.50
2017,02,23,17,44,3.40
2017,02,23,17,45,3.30
2017,02,23,17,46,3.30
2017,02,23,17,47,3.30
2017,02,23,17,48,3.30
2017,02,23,17,49,3.20
2017,02,23,17,51,3.10
2017,02,23,17,52,3.10
2017,02,23,17,53,3.10
2017,02,23,17,54,3.00
2017,02,23,17,56,2.90
2017,02,23,17,57,2.90
2017,02,23,17,58,2.90
2017,02,23,17,59,2.80
2017,02,23,18,01,2.80
2017,02,23,18,02,2.80
2017,02,23,18,03,2.80
2017,02,23,18,04,2.80
2017,02,23,18,05,2.80
2017,02,23,18,06,2.80
2017,02,23,18,08,2.70
2017,02,23,18,09,2.70
2017,02,23,18,10,2.70
2017,02,23,18,11,2.70
2017,02,23,18,13,2.60
2017,02,23,18,14,2.60
2017,02,23,18,15,2.60
2017,02,23,18,16,2.60
2017,02,23,18,17,2.60
2017,02,23,18,18,2.60
2017,02,23,18,20,2.60
2017,02,23,18,21,2.40
2017,02,23,18,22,2.40
2017,02,23,18,23,2.40
2017,02,23,18,25,2.40
2017,02,23,18,26,2.40
2017,02,23,18,27,2.40
2017,02,23,18,28,2.40
2017,02,23,18,30,2.40
2017,02,23,18,31,2.40
2017,02,23,18,32,2.40
2017,02,23,18,33,2.30
2017,02,23,18,34,2.30
2017,02,23,18,35,2.30
2017,02,23,18,37,2.30
2017,02,23,18,38,2.30
2017,02,23,18,39,2.30
2017,02,23,18,40,2.30
2017,02,23,18,42,2.30
2017,02,23,18,43,2.30
2017,02,23,18,44,2.20
2017,02,23,18,45,2.20
2017,02,23,18,46,2.20
2017,02,23,18,57,2.20
2017,02,23,18,58,2.20
2017,02,23,18,59,2.20
2017,02,23,19,00,2.20
2017,02,23,19,01,2.20
2017,02,23,19,02,2.20
2017,02,23,19,04,2.10
2017,02,23,19,05,2.10
2017,02,23,19,06,2.10
2017,02,23,19,07,2.00
2017,02,23,19,09,2.00
2017,02,23,19,10,2.00
2017,02,23,19,11,2.00
2017,02,23,19,12,1.90
2017,02,23,19,13,1.90
2017,02,23,19,14,1.90
2017,02,23,19,15,1.90
2017,02,23,19,16,1.90
2017,02,23,19,17,1.90
2017,02,23,19,18,1.90
2017,02,23,19,19,1.80
2017,02,23,19,20,1.80
2017,02,23,19,21,1.80
2017,02,23,19,22,1.80
2017,02,23,19,23,1.90
2017,02,23,19,24,1.90
2017,02,23,19,25,1.90
2017,02,23,19,26,1.90
2017,02,23,19,27,1.90
2017,02,23,19,28,1.90
2017,02,23,19,29,1.90
2017,02,23,19,30,1.90
2017,02,23,19,31,1.90
2017,02,23,19,32,1.90
2017,02,23,19,33,1.80
2017,02,23,19,34,1.80
2017,02,23,19,35,1.80
2017,02,23,19,36,1.80
2017,02,23,19,37,1.80
2017,02,23,19,38,1.80
2017,02,23,19,39,1.80
2017,02,23,19,40,1.80
2017,02,23,19,41,1.80
2017,02,23,19,42,1.80
2017,02,23,19,43,1.70
2017,02,23,19,44,1.80
2017,02,23,19,45,1.80
2017,02,23,19,46,1.80
2017,02,23,19,47,1.90
2017,02,23,19,48,1.90
2017,02,23,19,49,1.90
2017,02,23,19,50,1.90
2017,02,23,19,51,1.90
2017,02,23,19,52,2.00
2017,02,23,19,53,2.00
2017,02,23,19,54,2.00
2017,02,23,19,55,2.00
2017,02,23,19,56,2.00
2017,02,23,19,57,2.00
2017,02,23,19,58,2.00
2017,02,23,19,59,2.00
2017,02,23,20,00,2.00
2017,02,23,20,01,2.10
2017,02,23,20,02,2.10
2017,02,23,20,03,2.10
2017,02,23,20,04,2.10
2017,02,23,20,05,2.10
2017,02,23,20,06,2.10
2017,02,23,20,07,2.10
2017,02,23,20,08,2.10
2017,02,23,20,09,2.10
2017,02,23,20,10,2.10
2017,02,23,20,11,2.10
2017,02,23,20,12,2.20
2017,02,23,20,13,2.20
2017,02,23,20,14,2.20
2017,02,23,20,15,2.20
2017,02,23,20,16,2.20
2017,02,23,20,17,2.20
2017,02,23,20,18,2.20
2017,02,23,20,19,2.20
2017,02,23,20,20,2.20
2017,02,23,20,21,2.20
2017,02,23,20,22,2.20
2017,02,23,20,23,2.20
2017,02,23,20,24,2.20
2017,02,23,20,25,2.20
2017,02,23,20,26,2.20
2017,02,23,20,27,2.20
2017,02,23,20,28,2.20
2017,02,23,20,29,2.20
2017,02,23,20,30,2.20
2017,02,23,20,31,2.20
2017,02,23,20,32,2.20
2017,02,23,20,33,2.20
2017,02,23,20,34,2.20